{"data":{"norad_id":55378,"intl_designator":"2023-013AZ","name":"STARLINK-5572","alt_names":[],"object_type":"PAYLOAD","status":"ACTIVE","operator":null,"country":"US","launch_date":"2023-01-26","launch_site_code":"AFETR","launch_vehicle":null,"mission":null,"orbit_class":"UNKNOWN","rcs_meters":null,"size_class":null,"mass_kg":null,"dimensions":null,"purposes":["comms"],"wikipedia_slug":null,"has_3d_model":false,"image_url":null,"decayed_at":null,"tle_current":{"epoch":"2026-05-24T18:36:34.826112Z","epoch_age_seconds":94189,"freshness":"FRESH","line1":"1 55378U 23013AZ  26144.77540308  .00001121  00000+0  50273-4 0  9993","line2":"2 55378  43.0013 251.4839 0001346 263.6532  96.4166 15.27579433183105","mean_motion":15.27579433,"eccentricity":0.0001346,"inclination_deg":43.0013,"raan_deg":251.4839,"arg_perigee_deg":263.6532,"mean_anomaly_deg":96.4166,"bstar":5.0273e-5,"rev_number":18310,"period_min":94.266783703156,"perigee_km":482.12727796511,"apogee_km":483.97430971921,"semimajor_km":6861.1877938422,"source":"CELESTRAK","updated_at":"2026-05-25T13:38:17.769799Z"}}}